Richmond, VA

3:52 PM EDT on April 24, 2017 (GMT -0400)
Richmond International

Weather History for KRIC - March, 2013

Change the Weather History Date:

Sunday, March 3, 2013

  Actual Average Record
Temperature  
Mean Temperature 36 °F 45 °F  
Max Temperature 46 °F 56 °F 79 °F (1974)
Min Temperature 26 °F 34 °F 11 °F (2009)
Degree Days  
Heating Degree Days 29 21  
Month to date heating degree days 79 63  
Since 1 July heating degree days 2807 2999  
Cooling Degree Days 0 0  
Month to date cooling degree days 0 0  
Year to date cooling degree days 1 0  
Moisture  
Dew Point 19 °F    
Average Humidity 53    
Maximum Humidity 75    
Minimum Humidity 31    
Precipitation  
Precipitation 0.00 in 0.12 in 1.90 in (1909)
Month to date precipitation 0.00 0.34  
Year to date precipitation 7.93 6.14  
Snow  
Snow 0.00 in 0.00 in 5.50 in (1960)
Month to date snowfall 0.0 0.1  
Since 1 July snowfall 3.2 9.7  
Snow Depth 0.00 in    
Sea Level Pressure  
Sea Level Pressure 29.89 in    
Wind  
Wind Speed 8 mph (NNW)    
Max Wind Speed 17 mph    
Max Gust Speed 22 mph    
Visibility 10 miles    
Events      
T = Trace of Precipitation, MM = Missing Value Source: NWS Daily Summary

Daily Weather History Graph

Daily Weather History Graph

Search for Another Location

Airport or City:

Trip Planner

Search our weather history database for the weather conditions in past years. The results will help you decide how hot, cold, wet, or windy it might be!

Date:

Astronomy

Mar. 03, 2013 Rise Set
Actual Time 6:37 AM EST 6:05 PM EST
Civil Twilight 6:11 AM EST 6:31 PM EST
Nautical Twilight 5:41 AM EST 7:01 PM EST
Astronomical Twilight 5:10 AM EST 7:32 PM EST
Moon No Moon Rise 9:58 AM EST (3/3)
Length of Visible Light 12h 20m
Length of Day
11h 27m
Waning Gibbous, 64% of the Moon is Illuminated
Mar 3
Waning Gibbous
Mar 4
Last Quarter
Mar 11
New
Mar 19
First Quarter
Mar 27
Full

Hourly Weather History & Observations

Time (EST) Temp. Windchill Dew Point Humidity Pressure Visibility Wind Dir Wind Speed Gust Speed Precip Events Conditions
12:54 AM 34.0 °F 29.8 °F 21.0 °F 59% 29.90 in 10.0 mi NNW 4.6 mph - N/A   Overcast
1:54 AM 32.0 °F 28.7 °F 19.9 °F 61% 29.90 in 10.0 mi North 3.5 mph - N/A   Mostly Cloudy
2:54 AM 30.9 °F 26.2 °F 19.0 °F 61% 29.88 in 10.0 mi NNW 4.6 mph - N/A   Mostly Cloudy
3:54 AM 30.9 °F 27.5 °F 19.0 °F 61% 29.88 in 10.0 mi NW 3.5 mph - N/A   Mostly Cloudy
4:54 AM 28.9 °F 23.9 °F 19.0 °F 67% 29.89 in 10.0 mi NNW 4.6 mph - N/A   Scattered Clouds
5:54 AM 26.1 °F 19.4 °F 19.0 °F 75% 29.90 in 10.0 mi North 5.8 mph - N/A   Scattered Clouds
6:54 AM 30.2 °F - 19.4 °F 64% 29.89 in 10.0 mi Calm Calm - N/A   Mostly Cloudy
7:54 AM 32.0 °F 26.4 °F 19.9 °F 61% 29.93 in 10.0 mi NW 5.8 mph - N/A   Mostly Cloudy
8:54 AM 37.0 °F 31.6 °F 19.0 °F 48% 29.92 in 10.0 mi NW 6.9 mph - N/A   Scattered Clouds
9:54 AM 37.0 °F 29.8 °F 18.0 °F 46% 29.91 in 10.0 mi NW 10.4 mph 20.7 mph N/A   Mostly Cloudy
10:54 AM 39.0 °F 31.8 °F 18.0 °F 43% 29.91 in 10.0 mi NNW 11.5 mph - N/A   Mostly Cloudy
11:54 AM 39.9 °F 33.9 °F 17.1 °F 40% 29.90 in 10.0 mi NW 9.2 mph - N/A   Mostly Cloudy
12:54 PM 41.0 °F 34.3 °F 18.0 °F 40% 29.88 in 10.0 mi WNW 11.5 mph - N/A   Mostly Cloudy
1:54 PM 43.0 °F 37.7 °F 18.0 °F 37% 29.84 in 10.0 mi NW 9.2 mph - N/A   Mostly Cloudy
2:54 PM 44.1 °F 37.1 °F 18.0 °F 35% 29.83 in 10.0 mi NNW 15.0 mph - N/A   Scattered Clouds
3:54 PM 46.0 °F 41.4 °F 18.0 °F 33% 29.82 in 10.0 mi NNW 9.2 mph - N/A   Scattered Clouds
4:54 PM 44.1 °F 37.7 °F 18.0 °F 35% 29.82 in 10.0 mi NNW 12.7 mph - N/A   Scattered Clouds
5:54 PM 41.0 °F 35.8 °F 19.0 °F 41% 29.83 in 10.0 mi North 8.1 mph - N/A   Scattered Clouds
6:54 PM 39.0 °F 36.8 °F 19.0 °F 45% 29.86 in 10.0 mi North 3.5 mph - N/A   Scattered Clouds
7:54 PM 37.0 °F 31.0 °F 19.0 °F 48% 29.89 in 10.0 mi North 8.1 mph - N/A   Mostly Cloudy
8:54 PM 36.0 °F 28.0 °F 17.1 °F 46% 29.92 in 10.0 mi NNW 11.5 mph - N/A   Mostly Cloudy
9:54 PM 35.1 °F 27.9 °F 17.1 °F 48% 29.95 in 10.0 mi NNW 9.2 mph - N/A   Mostly Cloudy
10:54 PM 33.1 °F 25.5 °F 17.1 °F 52% 29.95 in 10.0 mi NNW 9.2 mph - N/A   Scattered Clouds
11:54 PM 30.9 °F 23.5 °F 16.0 °F 54% 29.96 in 10.0 mi NNW 8.1 mph - N/A   Scattered Clouds